When you browse on this site, cookies collect data to enhance your experience and personalize the content and advertising you see.
Visit our Privacy Policy to learn more. By continuing to use the site, you agree to this use of cookies and data.
  • In Portugal
  • List of Countries
  • For 7 days
  • Water Temperature
  • Satellite Maps
  • Weather Map
  • Weather Widgets
  • user-avatar
    Login

    Hourly Weather Apole

    Today, 18 February, Monday

    Time Temperature Precipitation Wind Pressure Humidity
    00:00 -4°C° 0 mm 4 mps 748 mmHg 85%
    01:00 -5°C° 0 mm 3 mps 749 mmHg 86%
    02:00 -5°C° 0 mm 3 mps 749 mmHg 86%
    03:00 -5°C° 0 mm 3 mps 750 mmHg 87%
    04:00 -5°C° 0 mm 2 mps 750 mmHg 88%
    05:00 -5°C° 0 mm 2 mps 750 mmHg 89%
    06:00 -5°C° 0 mm 2 mps 751 mmHg 89%
    07:00 -5°C° 0 mm 2 mps 751 mmHg 90%
    08:00 -4°C° 0 mm 1 mps 752 mmHg 90%
    09:00 -3°C° 0 mm 1 mps 752 mmHg 83%
    10:00 -2°C° 0 mm 1 mps 752 mmHg 76%
    11:00 -1°C° 0 mm 1 mps 753 mmHg 69%
    12:00 0°C° 0 mm 1 mps 752 mmHg 65%
    13:00 0°C° 0 mm 1 mps 752 mmHg 62%
    14:00 0°C° 0 mm 0 mps 752 mmHg 58%
    15:00 0°C° 0 mm 1 mps 752 mmHg 63%
    16:00 -1°C° 0 mm 1 mps 752 mmHg 67%
    17:00 -1°C° 0 mm 1 mps 752 mmHg 72%
    18:00 -3°C° 0 mm 2 mps 751 mmHg 72%
    19:00 -3°C° 0 mm 2 mps 751 mmHg 72%
    20:00 -4°C° 0 mm 2 mps 751 mmHg 73%
    21:00 -4°C° 0 mm 3 mps 751 mmHg 71%
    22:00 -4°C° 0 mm 3 mps 750 mmHg 70%
    23:00 -4°C° 0 mm 4 mps 750 mmHg 68%

    Tomorrow, 19 February, Tuesday

    Time Temperature Precipitation Wind Pressure Humidity
    00:00 -4°C° 0 mm 4 mps 749 mmHg 70%
    01:00 -4°C° 0 mm 4 mps 749 mmHg 72%
    02:00 -4°C° 0 mm 4 mps 749 mmHg 73%
    03:00 -3°C° 0 mm 4 mps 748 mmHg 76%
    04:00 -4°C° 0 mm 5 mps 747 mmHg 80%
    05:00 -4°C° 0 mm 5 mps 747 mmHg 83%
    06:00 -4°C° 0 mm 5 mps 746 mmHg 83%
    07:00 -2°C° 0 mm 5 mps 746 mmHg 83%
    08:00 -2°C° 0 mm 5 mps 745 mmHg 83%
    09:00 -1°C° 0 mm 5 mps 745 mmHg 81%
    10:00 -1°C° 0 mm 5 mps 744 mmHg 80%
    11:00 0°C° 0 mm 5 mps 744 mmHg 78%
    12:00 +1°C° 0 mm 5 mps 743 mmHg 79%
    13:00 +1°C° 0 mm 5 mps 743 mmHg 79%
    14:00 +1°C° 0 mm 5 mps 742 mmHg 80%
    15:00 +1°C° 0 mm 5 mps 742 mmHg 82%
    16:00 0°C° 0 mm 5 mps 741 mmHg 84%
    17:00 0°C° 0 mm 4 mps 740 mmHg 86%
    18:00 0°C° 0 mm 5 mps 740 mmHg 87%
    19:00 0°C° 0 mm 5 mps 739 mmHg 88%
    20:00 0°C° 0 mm 5 mps 738 mmHg 89%
    21:00 0°C° 0 mm 5 mps 738 mmHg 89%
    22:00 0°C° 0 mm 5 mps 737 mmHg 88%
    23:00 0°C° 0 mm 5 mps 736 mmHg 88%

    Day after tomorrow, 20 February, Wednesday

    Time Temperature Precipitation Wind Pressure Humidity
    00:00 0°C° 0.2 mm 5 mps 736 mmHg 88%
    01:00 0°C° 0.2 mm 5 mps 736 mmHg 88%
    02:00 0°C° 0.2 mm 5 mps 735 mmHg 88%
    03:00 0°C° 0.1 mm 5 mps 735 mmHg 89%
    04:00 +1°C° 0.1 mm 5 mps 735 mmHg 89%
    05:00 +1°C° 0.1 mm 5 mps 735 mmHg 90%
    06:00 0°C° 0 mm 5 mps 735 mmHg 89%
    07:00 0°C° 0 mm 5 mps 735 mmHg 87%
    08:00 0°C° 0 mm 5 mps 735 mmHg 86%
    09:00 0°C° 0.1 mm 5 mps 735 mmHg 84%
    10:00 +1°C° 0.1 mm 5 mps 735 mmHg 82%
    11:00 +1°C° 0.1 mm 5 mps 734 mmHg 80%
    12:00 +1°C° 0.1 mm 5 mps 734 mmHg 80%
    13:00 +1°C° 0.1 mm 5 mps 734 mmHg 79%
    14:00 +1°C° 0.1 mm 5 mps 734 mmHg 79%
    15:00 +1°C° 0.2 mm 5 mps 734 mmHg 80%
    16:00 0°C° 0.2 mm 5 mps 734 mmHg 81%
    17:00 0°C° 0.2 mm 5 mps 734 mmHg 83%
    18:00 -1°C° 0.1 mm 5 mps 734 mmHg 79%
    19:00 -2°C° 0.1 mm 5 mps 734 mmHg 75%
    20:00 -5°C° 0.1 mm 5 mps 735 mmHg 71%
    21:00 -5°C° 0.1 mm 6 mps 735 mmHg 73%
    22:00 -5°C° 0.1 mm 6 mps 735 mmHg 75%
    23:00 -6°C° 0.1 mm 7 mps 736 mmHg 77%

    21 February, Thursday

    Time Temperature Precipitation Wind Pressure Humidity
    00:00 -6°C° 0.1 mm 7 mps 736 mmHg 76%
    01:00 -6°C° 0.1 mm 7 mps 736 mmHg 75%
    02:00 -6°C° 0.1 mm 7 mps 737 mmHg 74%
    03:00 -6°C° 0.1 mm 7 mps 737 mmHg 74%
    04:00 -7°C° 0.1 mm 7 mps 737 mmHg 74%
    05:00 -7°C° 0.1 mm 7 mps 738 mmHg 74%
    06:00 -7°C° 0.1 mm 7 mps 739 mmHg 71%
    07:00 -8°C° 0.1 mm 7 mps 739 mmHg 69%
    08:00 -9°C° 0.1 mm 7 mps 740 mmHg 66%
    09:00 -8°C° 0.1 mm 7 mps 741 mmHg 65%
    10:00 -8°C° 0.1 mm 7 mps 742 mmHg 64%
    11:00 -8°C° 0.1 mm 7 mps 743 mmHg 63%
    12:00 -8°C° 0 mm 7 mps 743 mmHg 62%
    13:00 -8°C° 0 mm 6 mps 744 mmHg 61%
    14:00 -8°C° 0 mm 6 mps 745 mmHg 60%
    15:00 -8°C° 0 mm 6 mps 745 mmHg 61%
    16:00 -9°C° 0 mm 6 mps 746 mmHg 62%
    17:00 -8°C° 0 mm 5 mps 747 mmHg 63%
    18:00 -8°C° 0 mm 5 mps 748 mmHg 64%
    19:00 -10°C° 0 mm 5 mps 749 mmHg 65%
    20:00 -10°C° 0 mm 5 mps 750 mmHg 66%
    21:00 -10°C° 0 mm 5 mps 751 mmHg 66%
    22:00 -11°C° 0 mm 5 mps 751 mmHg 66%
    23:00 -11°C° 0 mm 5 mps 752 mmHg 66%

    22 February, Friday

    Time Temperature Precipitation Wind Pressure Humidity
    00:00 -10°C° 0 mm 4 mps 753 mmHg 66%
    01:00 -11°C° 0 mm 4 mps 754 mmHg 67%
    02:00 -11°C° 0 mm 4 mps 754 mmHg 67%
    03:00 -11°C° 0 mm 4 mps 755 mmHg 69%
    04:00 -11°C° 0 mm 4 mps 755 mmHg 71%
    05:00 -11°C° 0 mm 4 mps 756 mmHg 73%
    06:00 -12°C° 0 mm 4 mps 757 mmHg 74%
    07:00 -12°C° 0 mm 4 mps 757 mmHg 76%
    08:00 -12°C° 0 mm 4 mps 758 mmHg 77%
    09:00 -11°C° 0 mm 4 mps 759 mmHg 72%
    10:00 -10°C° 0 mm 4 mps 759 mmHg 67%
    11:00 -9°C° 0 mm 4 mps 760 mmHg 62%
    12:00 -9°C° 0 mm 4 mps 760 mmHg 58%
    13:00 -8°C° 0 mm 4 mps 760 mmHg 55%
    14:00 -8°C° 0 mm 4 mps 760 mmHg 52%
    15:00 -8°C° 0 mm 4 mps 761 mmHg 54%
    16:00 -8°C° 0 mm 3 mps 761 mmHg 57%
    17:00 -8°C° 0 mm 3 mps 762 mmHg 59%
    18:00 -8°C° 0 mm 3 mps 762 mmHg 63%
    19:00 -8°C° 0 mm 2 mps 762 mmHg 66%
    20:00 -8°C° 0 mm 2 mps 763 mmHg 70%
    21:00 -9°C° 0 mm 2 mps 763 mmHg 72%
    22:00 -8°C° 0 mm 1 mps 763 mmHg 74%
    23:00 -8°C° 0 mm 1 mps 763 mmHg 76%

    23 February, Saturday

    Time Temperature Precipitation Wind Pressure Humidity
    00:00 -8°C° 0 mm 1 mps 763 mmHg 74%
    01:00 -8°C° 0 mm 1 mps 763 mmHg 73%
    02:00 -8°C° 0 mm 1 mps 763 mmHg 71%
    03:00 -8°C° 0 mm 2 mps 762 mmHg 66%
    04:00 -8°C° 0 mm 2 mps 762 mmHg 62%
    05:00 -9°C° 0 mm 3 mps 761 mmHg 57%
    06:00 -8°C° 0 mm 3 mps 761 mmHg 61%
    07:00 -9°C° 0 mm 4 mps 760 mmHg 65%
    08:00 -9°C° 0 mm 4 mps 760 mmHg 70%
    09:00 -10°C° 0.2 mm 5 mps 759 mmHg 74%
    10:00 -8°C° 0.2 mm 5 mps 759 mmHg 77%
    11:00 -8°C° 0.2 mm 5 mps 758 mmHg 81%
    12:00 -7°C° 0.1 mm 5 mps 758 mmHg 81%
    13:00 -7°C° 0.1 mm 5 mps 757 mmHg 81%
    14:00 -7°C° 0.1 mm 5 mps 756 mmHg 81%
    15:00 -5°C° 0.2 mm 4 mps 756 mmHg 82%
    16:00 -5°C° 0.2 mm 4 mps 756 mmHg 83%
    17:00 -5°C° 0.2 mm 4 mps 756 mmHg 84%
    18:00 -5°C° 0 mm 3 mps 755 mmHg 84%
    19:00 -5°C° 0 mm 3 mps 755 mmHg 84%
    20:00 -4°C° 0 mm 3 mps 755 mmHg 85%
    21:00 -4°C° 0 mm 3 mps 755 mmHg 85%
    22:00 -4°C° 0 mm 3 mps 755 mmHg 86%
    23:00 -4°C° 0 mm 3 mps 754 mmHg 87%
    Show more